This is the latest recevied weather packets stored in our database for station/object DELTON-WX. If no packets are shown the sender has not sent any weather packets the latest 10 day(s).
| Time | Temp. | Humidity | Pressure | Rain* | Wind** | Luminosity | Snow |
|---|---|---|---|---|---|---|---|
| 1778058948 | 3.89° C | 67% | 976.3 hPa | 0 mm | - | - | - |
| 1778058084 | 3.89° C | 67% | 976.3 hPa | 0 mm | - | - | - |
| 1778057149 | 3.89° C | 64% | 975.7 hPa | 0 mm | - | - | - |
| 1778056262 | 3.89° C | 69% | 976.2 hPa | 0 mm | - | - | - |
| 1778055348 | 3.89° C | 69% | 976.2 hPa | 0 mm | - | - | - |
| 1778054484 | 4.44° C | 69% | 976.2 hPa | 0 mm | - | - | - |
| 1778053547 | 4.44° C | 68% | 976.1 hPa | 0 mm | - | - | - |
| 1778052667 | 4.44° C | 68% | 976.1 hPa | 0 mm | - | - | - |
| 1778051748 | 5° C | 68% | 976.1 hPa | 0 mm | - | - | - |
| 1778050876 | 5° C | 68% | 976.1 hPa | 0 mm | - | - | - |
| 1778049948 | 5° C | 71% | 976.3 hPa | 0 mm | - | - | - |
| 1778049066 | 5.56° C | 71% | 976.3 hPa | 0 mm | - | - | - |
| 1778048148 | 5.56° C | 71% | 976.3 hPa | 0 mm | - | - | - |
| 1778047290 | 6.11° C | 71% | 976.3 hPa | 0 mm | - | - | - |
| 1778046349 | 6.11° C | 66% | 976.6 hPa | 0 mm | - | - | - |
| 1778045463 | 6.11° C | 68% | 976.2 hPa | 0 mm | - | - | - |
| 1778044548 | 6.11° C | 68% | 976.2 hPa | 0 mm | - | - | - |
| 1778043684 | 6.67° C | 68% | 976.2 hPa | 0 mm | - | - | - |
| 1778042748 | 6.67° C | 63% | 977.4 hPa | 0 mm | - | - | - |
| 1778041863 | 6.67° C | 68% | 976.8 hPa | 0 mm | - | - | - |
| 1778040948 | 6.67° C | 68% | 976.8 hPa | 0 mm | - | - | - |
| 1778040087 | 6.67° C | 68% | 976.8 hPa | 0 mm | - | - | - |
| 1778039146 | 6.67° C | 62% | 976.4 hPa | 0 mm | - | - | - |
| 1778037348 | 7.78° C | 57% | 976.4 hPa | 0 mm | - | - | - |
| 1778036488 | 7.78° C | 57% | 976.4 hPa | 0 mm | - | - | - |
* Rain latest hour (hover to see other rain measurements)
** Current wind speed in m/s (hover to see current wind gust speed)